Weather History for Adana Incirlik AFB, Turkey

Change the Weather History Date:

Tuesday, September 24, 2013

  Actual Average Record
Temperature  
Mean Temperature 71 °F -  
Max Temperature 85 °F 86 °F 95 °F (2010)
Min Temperature 57 °F 62 °F 57 °F (2013)
Cooling Degree Days 6    
Growing Degree Days 21 (Base 50)    
Moisture  
Dew Point 51 °F    
Average Humidity 55    
Maximum Humidity 100    
Minimum Humidity 13    
Precipitation  
Precipitation 0.00 in - - ()
Sea Level Pressure  
Sea Level Pressure 29.77 in    
Wind  
Wind Speed 6 mph ()    
Max Wind Speed 16 mph    
Max Gust Speed -    
Visibility 6.4 miles    
Events      
Averages and records for this station are not official NWS values.
T = Trace of Precipitation, MM = Missing Value Source: Averaged Metar Reports

Daily Weather History Graph

Daily Weather History Graph

Search for Another Location

Airport:

Trip Planner

Search our weather history database for the weather conditions in past years. The results will help you decide how hot, cold, wet, or windy it might be!

Date:

Astronomy

Sep. 24, 2013 Rise Set
Actual Time 6:27 AM EEST 6:32 PM EEST
Civil Twilight 6:01 AM EEST 6:58 PM EEST
Nautical Twilight 5:31 AM EEST 7:28 PM EEST
Astronomical Twilight 5:00 AM EEST 7:58 PM EEST
Moon 9:41 PM EEST (9/24) 11:16 AM EEST (9/24)
Length of Visible Light 12h 56m
Length of Day
12h 04m
Waning Gibbous, 75% of the Moon is Illuminated
Sep 24
Waning Gibbous
Sep 27
Last Quarter
Oct 5
New
Oct 12
First Quarter
Oct 19
Full

Hourly Weather History & Observations

Time (EEST) Temp. Dew Point Humidity Pressure Visibility Wind Dir Wind Speed Gust Speed Precip Events Conditions
12:20 AM 64.4 °F 57.2 °F 77% 29.74 in 6.2 mi ENE 8.1 mph - N/A   Scattered Clouds
12:50 AM 62.6 °F 57.2 °F 82% 29.74 in 6.2 mi NE 6.9 mph - N/A   Scattered Clouds
1:20 AM 62.6 °F 59.0 °F 88% 29.74 in 6.2 mi NE 6.9 mph - N/A   Scattered Clouds
1:50 AM 62.6 °F 60.8 °F 94% 29.74 in 6.2 mi ENE 4.6 mph - N/A   Scattered Clouds
2:20 AM 62.6 °F 60.8 °F 94% 29.74 in 6.2 mi NNE 5.8 mph - N/A   Scattered Clouds
2:50 AM 62.6 °F 60.8 °F 94% 29.74 in 6.2 mi NE 8.1 mph - N/A   Scattered Clouds
3:20 AM 62.6 °F 62.6 °F 100% 29.74 in 6.2 mi NNE 6.9 mph - N/A   Scattered Clouds
3:50 AM 62.6 °F 62.6 °F 100% 29.74 in 6.2 mi NE 5.8 mph - N/A   Scattered Clouds
4:20 AM 60.8 °F 59.0 °F 94% 29.74 in 6.2 mi NE 8.1 mph - N/A   Scattered Clouds
4:50 AM 59.0 °F 55.4 °F 88% 29.74 in 6.2 mi NNE 6.9 mph - N/A   Scattered Clouds
5:20 AM 59.0 °F 53.6 °F 82% 29.74 in 6.2 mi NE 6.9 mph - N/A   Scattered Clouds
5:50 AM 57.2 °F 51.8 °F 82% 29.74 in 6.2 mi North 4.6 mph - N/A   Scattered Clouds
6:20 AM 60.8 °F 50.0 °F 68% 29.74 in 6.2 mi North 4.6 mph - N/A   Scattered Clouds
6:50 AM 60.8 °F 50.0 °F 68% 29.74 in 6.2 mi NNW 4.6 mph - N/A   Scattered Clouds
7:20 AM 62.6 °F 51.8 °F 68% 29.74 in 6.2 mi Variable 2.3 mph - N/A   Scattered Clouds
7:50 AM 64.4 °F 51.8 °F 64% 29.77 in 6.2 mi WNW 3.5 mph - N/A   Scattered Clouds
8:20 AM 68.0 °F 50.0 °F 52% 29.77 in 6.2 mi NNW 3.5 mph - N/A   Scattered Clouds
8:50 AM 71.6 °F 44.6 °F 38% 29.77 in 6.2 mi NNW 5.8 mph - N/A   Partly Cloudy
9:00 AM 72 °F 46 °F 28% 29.78 in 12 mi NNW 5.8 mph - -   Scattered Clouds
9:20 AM 75.2 °F 42.8 °F 31% 29.77 in 6.2 mi North 4.6 mph - N/A   Partly Cloudy
9:50 AM 77.0 °F 41.0 °F 28% 29.77 in 6.2 mi North 4.6 mph - N/A   Partly Cloudy
10:20 AM 78.8 °F 39.2 °F 24% 29.77 in 6.2 mi North 4.6 mph - N/A   Partly Cloudy
10:50 AM 80.6 °F 37.4 °F 21% 29.77 in 6.2 mi ESE 4.6 mph - N/A   Partly Cloudy
11:20 AM 80.6 °F 37.4 °F 21% 29.77 in 6.2 mi NNW 4.6 mph - N/A   Partly Cloudy
11:50 AM 82.4 °F 39.2 °F 21% 29.77 in 6.2 mi NW 8.1 mph - N/A   Partly Cloudy
12:20 PM 84.2 °F 39.2 °F 20% 29.77 in 6.2 mi SSE 3.5 mph - N/A   Partly Cloudy
12:50 PM 84.2 °F 39.2 °F 20% 29.77 in 6.2 mi SE 3.5 mph - N/A   Partly Cloudy
1:20 PM 84.2 °F 39.2 °F 20% 29.77 in 6.2 mi SSE 6.9 mph - N/A   Partly Cloudy
1:50 PM 84.2 °F 41.0 °F 22% 29.74 in 6.2 mi South 10.4 mph - N/A   Partly Cloudy
2:20 PM 84.2 °F 42.8 °F 23% 29.74 in 6.2 mi SSW 9.2 mph - N/A   Partly Cloudy
2:50 PM 84.2 °F 41.0 °F 22% 29.74 in 6.2 mi South 12.7 mph - N/A   Partly Cloudy
3:00 PM 85 °F 42 °F 13% 29.74 in 12 mi South 12.7 mph - -   Scattered Clouds
3:20 PM 84.2 °F 42.8 °F 23% 29.74 in 6.2 mi SW 5.8 mph - N/A   Partly Cloudy
3:50 PM 84.2 °F 46.4 °F 27% 29.74 in 6.2 mi SSW 9.2 mph - N/A   Partly Cloudy
4:20 PM 82.4 °F 50.0 °F 32% 29.74 in 6.2 mi SSW 12.7 mph - N/A   Partly Cloudy
4:50 PM 82.4 °F 50.0 °F 32% 29.77 in 6.2 mi SW 16.1 mph - N/A   Partly Cloudy
5:20 PM 80.6 °F 51.8 °F 37% 29.77 in 6.2 mi South 16.1 mph - N/A   Partly Cloudy
5:50 PM 78.8 °F 55.4 °F 44% 29.77 in 6.2 mi SSW 9.2 mph - N/A   Partly Cloudy
6:20 PM 77.0 °F 59.0 °F 54% 29.77 in 6.2 mi SW 8.1 mph - N/A   Partly Cloudy
6:50 PM 75.2 °F 57.2 °F 53% 29.77 in 6.2 mi SW 6.9 mph - N/A   Partly Cloudy
7:20 PM 73.4 °F 59.0 °F 61% 29.77 in 6.2 mi SSW 5.8 mph - N/A   Partly Cloudy
7:50 PM 75.2 °F 59.0 °F 57% 29.80 in 6.2 mi SW 3.5 mph - N/A   Partly Cloudy
8:20 PM 73.4 °F 59.0 °F 61% 29.80 in 6.2 mi SSW 4.6 mph - N/A   Partly Cloudy
8:50 PM 73.4 °F 59.0 °F 61% 29.80 in 6.2 mi East 6.9 mph - N/A   Partly Cloudy
9:00 PM 73 °F 59 °F 52% 29.81 in 6 mi East 6.9 mph - -   Scattered Clouds
9:20 PM 71.6 °F 57.2 °F 60% 29.80 in 6.2 mi ESE 4.6 mph - N/A   Partly Cloudy
9:50 PM 69.8 °F 57.2 °F 64% 29.80 in 6.2 mi NNE 3.5 mph - N/A   Partly Cloudy
10:20 PM 66.2 °F 57.2 °F 73% 29.80 in 6.2 mi East 3.5 mph - N/A   Partly Cloudy
10:50 PM 66.2 °F 59.0 °F 78% 29.83 in 6.2 mi NE 8.1 mph - N/A   Partly Cloudy
11:20 PM 64.4 °F 60.8 °F 88% 29.83 in 6.2 mi North 8.1 mph - N/A   Partly Cloudy
11:50 PM 64.4 °F 60.8 °F 88% 29.83 in 6.2 mi North 9.2 mph - N/A   Partly Cloudy